| time (UTC) | temp F | wind direction | speed knots | gust knots | rain 1hr in | rain 24hr in | rain mn in | humidity % | barometer mb |
| 20260504160401 | 76 | 315 | 0.9 | 1.7 | 0.00 | 0.07 | 0.00 | 98 | 1010.0 |
| 20260504160200 | 76 | 315 | 0.0 | 1.7 | 0.00 | 0.07 | 0.00 | 99 | 1010.1 |
| 20260504151001 | 76 | 315 | 0.9 | 1.7 | 0.00 | 0.07 | 0.07 | 98 | 1009.5 |
| 20260504150801 | 76 | 315 | 0.0 | 1.7 | 0.00 | 0.07 | 0.07 | 98 | 1009.7 |
| 20260504150601 | 76 | 315 | 0.0 | 1.7 | 0.00 | 0.07 | 0.07 | 98 | 1009.6 |
| 20260504150401 | 76 | 315 | 1.7 | 1.7 | 0.00 | 0.07 | 0.07 | 98 | 1009.5 |
| 20260504150201 | 76 | 315 | 0.9 | 1.7 | 0.00 | 0.07 | 0.07 | 98 | 1009.7 |
| 20260504141201 | 77 | 292 | 1.7 | 1.7 | 0.00 | 0.07 | 0.07 | 97 | 1009.5 |
| 20260504141001 | 77 | 292 | 0.9 | 1.7 | 0.00 | 0.07 | 0.07 | 97 | 1009.4 |
| 20260504140801 | 77 | 292 | 0.0 | 1.7 | 0.00 | 0.07 | 0.07 | 97 | 1009.2 |
| 20260504140602 | 77 | 292 | 0.0 | 1.7 | 0.00 | 0.07 | 0.07 | 97 | 1009.3 |
| 20260504140402 | 77 | 292 | 0.0 | 1.7 | 0.00 | 0.07 | 0.07 | 97 | 1009.2 |
| 20260504140201 | 77 | 292 | 0.0 | 1.7 | 0.00 | 0.07 | 0.07 | 97 | 1009.2 |
| 20260504130801 | 78 | 292 | 0.0 | 1.7 | 0.00 | 0.07 | 0.07 | 96 | 1008.8 |
| 20260504130601 | 78 | 292 | 0.0 | 1.7 | 0.00 | 0.07 | 0.07 | 96 | 1008.5 |
| 20260504130401 | 78 | 292 | 0.0 | 1.7 | 0.00 | 0.07 | 0.07 | 96 | 1008.6 |
| 20260504130202 | 78 | 292 | 0.0 | 1.7 | 0.00 | 0.07 | 0.07 | 96 | 1008.5 |
| 20260504120201 | 78 | 292 | 0.0 | 1.7 | 0.00 | 0.07 | 0.07 | 96 | 1007.8 |
| 20260504110602 | 79 | 292 | 1.7 | 1.7 | 0.00 | 0.07 | 0.07 | 92 | 1007.7 |
| 20260504110401 | 79 | 289 | 0.9 | 1.7 | 0.00 | 0.07 | 0.07 | 92 | 1007.6 |
| 20260504110201 | 80 | 280 | 0.0 | 1.7 | 0.00 | 0.07 | 0.07 | 92 | 1007.6 |
| 20260504100601 | 82 | 263 | 0.0 | 1.7 | 0.00 | 0.07 | 0.07 | 86 | 1007.2 |
| 20260504100401 | 82 | 260 | 0.0 | 1.7 | 0.00 | 0.07 | 0.07 | 87 | 1007.1 |
| 20260504100202 | 82 | 255 | 0.9 | 1.7 | 0.00 | 0.07 | 0.07 | 86 | 1007.2 |